Regional Weather Roundup
Issued by NWS

Home | Current Version | Previous Version | Graphics & Text | Print | Product List | Glossary On
Versions: 1 2 3 4 5 6 7 8 9 10 11 12 13 14 15 16 17 18 19 20 21 22 23 24 25 26 27 28 29 30 31 32 33 34 35 36 37 38 39 40 41 42 43 44 45 46 47 48 49 50
000
ASUS43 KBIS 200010
RWRND
NORTH DAKOTA REGIONAL WEATHER ROUNDUP
NATIONAL WEATHER SERVICE EASTERN NORTH DAKOTA/GRAND FORKS ND
700 PM CDT THU APR 19 2018

  NOTE: "FAIR" INDICATES FEW OR NO CLOUDS BELOW 12,000 FEET WITH NO
  SIGNIFICANT WEATHER AND/OR OBSTRUCTIONS TO VISIBILITY.

NDZ001>003-009>011-017-200100-
...NORTHWEST NORTH DAKOTA...

CITY           SKY/WX    TMP DP  RH WIND       PRES   REMARKS
WILLISTON      NOT AVBL
MINOT          FAIR      47  36  65 SE5       30.33F
MINOT AFB      FAIR      47  37  69 SW7       30.32F
6HR MIN TEMP:  42; 6HR MAX TEMP:  49;

$$

NDZ018>021-031>035-040>046-200100-
...SOUTHWEST NORTH DAKOTA...

CITY           SKY/WX    TMP DP  RH WIND       PRES   REMARKS
BISMARCK       FAIR      53  33  46 E17       30.32S
DICKINSON      FAIR      53  27  36 E13       30.23S
GARRISON         N/A     42  35  76 E8        30.32F
HETTINGER      FAIR      54  28  36 SE16      30.24S
$$

NDZ004>008-012>016-024-026-027-054-200100-
...NORTHEAST NORTH DAKOTA...

CITY           SKY/WX    TMP DP  RH WIND       PRES   REMARKS
GRAND FORKS    FAIR      51  36  56 S13       30.37S
GRAND FORKS AF SUNNY     51  34  52 S14       30.37S
DEVILS LAKE    FAIR      51  32  48 SW5       30.37
$$

NDZ022-023-025-028>030-036>039-047>053-200100-
...SOUTHEAST NORTH DAKOTA...

CITY           SKY/WX    TMP DP  RH WIND       PRES   REMARKS
JAMESTOWN      FAIR      52  29  41 S7        30.35S
FARGO          FAIR      53  34  48 N9        30.38S
WAHPETON       MOCLDY    52  32  46 CALM      30.39S
$$




USA.gov is the U.S. government's official web portal to all federal, state and local government web resources and services.